Weather in Grozny

Russia / Republic of Adygea     44°38′49″N   40°11′13″E
В апреле 2022 года жителям России запретили посещать сайт meteo.paraplan.net по решению Генеральной прокуратуры. Аудитория сайта уменьшилась в 10 раз. Владельцы сайта не видят смысла в поддержке погодного сервера в таких условиях. Сайт будет закрыт в октябре.
temp.,
°C
wind,
m/s
gust,
m/s
humid.,
%
clouds,
%
prec.,
mm/h
press.,
hPa
HPBL,
m
3 october, mon
mon300:00+20w81567100 0.0 1004883
03:00+16w81293100 1.3 1007789
06:00+14w7128397 4.6 1011747
09:00+15w710664 4.6 10131039
12:00+18w684848 0.0 10141444
15:00+20wnw464135 0.0 10141917
18:00+18nne125198 0.0 101525
21:00+16e245748 0.0 1015104
4 october, tue
tue400:00+14ese347098 0.0 101470
03:00+14ese366843 0.0 1013161
06:00+13se127496 0.0 101366
09:00+15w246899 0.0 1015286
12:00+16wsw2367100 0.0 1015201
15:00+18w125727 0.1 1015255
18:00+17se1156100 0.0 101612
21:00+17s2261100 0.1 101718
5 october, wed
wed500:00+16w2267100 0.1 101828
03:00+13wsw3478100 0.2 102097
06:00+12sw2282100 0.3 102143
09:00+15w226957 0.5 1022320
12:00+19nw33545 0.0 10221019
15:00+20wnw445041 0.0 10221561
18:00+17nnw466688 0.0 1024296
21:00+14w127269 0.0 102538
6 october, thu
thu600:00+14nnw2454100 0.0 1026247
03:00+13nw235965 0.0 1026219
06:00+11nw116889 0.0 102644
09:00+14nne125884 0.0 1026434
12:00+17nne214759 0.0 10251201
15:00+18n2243100 0.0 10241411
18:00+14nne22500 0.0 102511
21:00+12e22550 0.0 102617
7 october, fri
fri700:00+11e22600 0.0 102629
03:00+10e33700 0.0 102539
06:00+9e33814 0.0 102551
09:00+15e46595 0.0 1024413
12:00+19ene55453 0.0 10231111
15:00+21ene55425 0.0 10211376
18:00+16ene476050 0.0 102298
21:00+13e410807 0.0 1021213